Year,Month,Day,Hour,Minute,Value (Times are PST for temperature in C)
2015,08,24,00,00,16.90
2015,08,24,00,01,16.90
2015,08,24,00,02,16.80
2015,08,24,00,03,16.80
2015,08,24,00,04,16.80
2015,08,24,00,05,16.80
2015,08,24,00,06,16.80
2015,08,24,00,07,16.80
2015,08,24,00,08,16.80
2015,08,24,00,09,16.80
2015,08,24,00,10,16.80
2015,08,24,00,11,16.80
2015,08,24,00,12,16.80
2015,08,24,00,13,16.80
2015,08,24,00,14,16.70
2015,08,24,00,15,16.70
2015,08,24,00,16,16.70
2015,08,24,00,17,16.70
2015,08,24,00,18,16.70
2015,08,24,00,19,16.70
2015,08,24,00,20,16.70
2015,08,24,00,21,16.70
2015,08,24,00,22,16.70
2015,08,24,00,23,16.70
2015,08,24,00,24,16.70
2015,08,24,00,25,16.60
2015,08,24,00,26,16.60
2015,08,24,00,27,16.60
2015,08,24,00,28,16.60
2015,08,24,00,29,16.60
2015,08,24,00,30,16.60
2015,08,24,00,31,16.60
2015,08,24,00,32,16.50
2015,08,24,00,33,16.50
2015,08,24,00,34,16.60
2015,08,24,00,35,16.60
2015,08,24,00,36,16.60
2015,08,24,00,37,16.60
2015,08,24,00,38,16.50
2015,08,24,00,39,16.50
2015,08,24,00,40,16.50
2015,08,24,00,41,16.50
2015,08,24,00,42,16.50
2015,08,24,00,43,16.50
2015,08,24,00,44,16.50
2015,08,24,00,45,16.50
2015,08,24,00,46,16.40
2015,08,24,00,47,16.40
2015,08,24,00,48,16.40
2015,08,24,00,49,16.40
2015,08,24,00,50,16.40
2015,08,24,00,51,16.40
2015,08,24,00,52,16.40
2015,08,24,00,53,16.40
2015,08,24,00,54,16.40
2015,08,24,00,55,16.30
2015,08,24,00,56,16.30
2015,08,24,00,57,16.30
2015,08,24,00,58,16.30
2015,08,24,00,59,16.30
2015,08,24,01,00,16.20
2015,08,24,01,01,16.20
2015,08,24,01,02,16.20
2015,08,24,01,03,16.20
2015,08,24,01,04,16.20
2015,08,24,01,05,16.20
2015,08,24,01,06,16.10
2015,08,24,01,07,16.10
2015,08,24,01,08,16.10
2015,08,24,01,09,16.10
2015,08,24,01,10,16.10
2015,08,24,01,11,16.10
2015,08,24,01,12,16.10
2015,08,24,01,13,16.10
2015,08,24,01,14,16.10
2015,08,24,01,15,16.10
2015,08,24,01,16,16.10
2015,08,24,01,17,16.10
2015,08,24,01,18,16.10
2015,08,24,01,19,16.00
2015,08,24,01,20,16.00
2015,08,24,01,21,16.00
2015,08,24,01,22,16.00
2015,08,24,01,23,15.90
2015,08,24,01,24,15.90
2015,08,24,01,25,15.90
2015,08,24,01,26,15.90
2015,08,24,01,27,15.90
2015,08,24,01,28,16.00
2015,08,24,01,29,16.00
2015,08,24,01,30,16.00
2015,08,24,01,31,16.00
2015,08,24,01,32,15.90
2015,08,24,01,33,15.90
2015,08,24,01,34,15.90
2015,08,24,01,35,15.90
2015,08,24,01,36,15.90
2015,08,24,01,37,15.90
2015,08,24,01,38,15.90
2015,08,24,01,39,15.80
2015,08,24,01,40,15.80
2015,08,24,01,41,15.80
2015,08,24,01,42,15.80
2015,08,24,01,43,15.80
2015,08,24,01,44,15.80
2015,08,24,01,45,15.80
2015,08,24,01,46,15.80
2015,08,24,01,47,15.80
2015,08,24,01,48,15.80
2015,08,24,01,49,15.80
2015,08,24,01,50,15.80
2015,08,24,01,51,15.70
2015,08,24,01,52,15.70
2015,08,24,01,53,15.70
2015,08,24,01,54,15.70
2015,08,24,01,55,15.70
2015,08,24,01,56,15.70
2015,08,24,01,57,15.70
2015,08,24,01,58,15.70
2015,08,24,01,59,15.70
2015,08,24,02,00,15.70
2015,08,24,02,01,15.60
2015,08,24,02,02,15.60
2015,08,24,02,03,15.60
2015,08,24,02,04,15.60
2015,08,24,02,05,15.60
2015,08,24,02,06,15.60
2015,08,24,02,07,15.60
2015,08,24,02,08,15.60
2015,08,24,02,09,15.60
2015,08,24,02,10,15.60
2015,08,24,02,11,15.60
2015,08,24,02,12,15.60
2015,08,24,02,13,15.60
2015,08,24,02,14,15.60
2015,08,24,02,15,15.60
2015,08,24,02,16,15.60
2015,08,24,02,17,15.50
2015,08,24,02,18,15.50
2015,08,24,02,19,15.50
2015,08,24,02,20,15.50
2015,08,24,02,21,15.50
2015,08,24,02,22,15.50
2015,08,24,02,23,15.50
2015,08,24,02,24,15.50
2015,08,24,02,25,15.40
2015,08,24,02,26,15.40
2015,08,24,02,27,15.40
2015,08,24,02,28,15.40
2015,08,24,02,29,15.40
2015,08,24,02,30,15.40
2015,08,24,02,31,15.40
2015,08,24,02,32,15.30
2015,08,24,02,33,15.30
2015,08,24,02,34,15.30
2015,08,24,02,35,15.30
2015,08,24,02,36,15.30
2015,08,24,02,37,15.30
2015,08,24,02,38,15.30
2015,08,24,02,39,15.20
2015,08,24,02,40,15.20
2015,08,24,02,41,15.20
2015,08,24,02,42,15.20
2015,08,24,02,43,15.20
2015,08,24,02,44,15.20
2015,08,24,02,45,15.20
2015,08,24,02,46,15.20
2015,08,24,02,47,15.20
2015,08,24,02,48,15.10
2015,08,24,02,49,15.10
2015,08,24,02,50,15.10
2015,08,24,02,51,15.10
2015,08,24,02,52,15.10
2015,08,24,02,53,15.10
2015,08,24,02,54,15.10
2015,08,24,02,55,15.00
2015,08,24,02,56,15.00
2015,08,24,02,57,14.90
2015,08,24,02,58,14.90
2015,08,24,02,59,14.90
2015,08,24,03,00,14.90
2015,08,24,03,01,14.80
2015,08,24,03,02,14.80
2015,08,24,03,03,14.80
2015,08,24,03,04,14.80
2015,08,24,03,05,14.80
2015,08,24,03,06,14.70
2015,08,24,03,07,14.70
2015,08,24,03,08,14.70
2015,08,24,03,09,14.70
2015,08,24,03,10,14.70
2015,08,24,03,11,14.60
2015,08,24,03,12,14.60
2015,08,24,03,13,14.60
2015,08,24,03,14,14.60
2015,08,24,03,15,14.60
2015,08,24,03,16,14.60
2015,08,24,03,17,14.60
2015,08,24,03,18,14.50
2015,08,24,03,19,14.50
2015,08,24,03,20,14.50
2015,08,24,03,21,14.40
2015,08,24,03,22,14.40
2015,08,24,03,23,14.40
2015,08,24,03,24,14.40
2015,08,24,03,25,14.40
2015,08,24,03,26,14.30
2015,08,24,03,27,14.30
2015,08,24,03,28,14.30
2015,08,24,03,29,14.30
2015,08,24,03,30,14.30
2015,08,24,03,31,14.30
2015,08,24,03,32,14.20
2015,08,24,03,33,14.20
2015,08,24,03,34,14.20
2015,08,24,03,35,14.20
2015,08,24,03,36,14.20
2015,08,24,03,37,14.20
2015,08,24,03,38,14.10
2015,08,24,03,39,14.10
2015,08,24,03,40,14.10
2015,08,24,03,41,14.00
2015,08,24,03,42,14.00
2015,08,24,03,43,14.00
2015,08,24,03,44,14.00
2015,08,24,03,45,13.90
2015,08,24,03,46,13.90
2015,08,24,03,47,13.90
2015,08,24,03,48,13.90
2015,08,24,03,49,13.90
2015,08,24,03,50,13.80
2015,08,24,03,51,13.80
2015,08,24,03,52,13.80
2015,08,24,03,53,13.80
2015,08,24,03,54,13.80
2015,08,24,03,55,13.80
2015,08,24,03,56,13.70
2015,08,24,03,57,13.70
2015,08,24,03,58,13.70
2015,08,24,03,59,13.70
2015,08,24,04,00,13.70
2015,08,24,04,01,13.70
2015,08,24,04,02,13.70
2015,08,24,04,03,13.60
2015,08,24,04,04,13.60
2015,08,24,04,05,13.60
2015,08,24,04,06,13.60
2015,08,24,04,07,13.60
2015,08,24,04,08,13.60
2015,08,24,04,09,13.50
2015,08,24,04,10,13.50
2015,08,24,04,11,13.50
2015,08,24,04,12,13.50
2015,08,24,04,13,13.50
2015,08,24,04,14,13.50
2015,08,24,04,15,13.40
2015,08,24,04,16,13.40
2015,08,24,04,17,13.40
2015,08,24,04,18,13.40
2015,08,24,04,19,13.40
2015,08,24,04,20,13.40
2015,08,24,04,21,13.30
2015,08,24,04,22,13.30
2015,08,24,04,23,13.30
2015,08,24,04,24,13.30
2015,08,24,04,25,13.30
2015,08,24,04,26,13.30
2015,08,24,04,27,13.20
2015,08,24,04,28,13.20
2015,08,24,04,29,13.20
2015,08,24,04,30,13.20
2015,08,24,04,31,13.20
2015,08,24,04,32,13.20
2015,08,24,04,33,13.20
2015,08,24,04,34,13.10
2015,08,24,04,35,13.10
2015,08,24,04,36,13.10
2015,08,24,04,37,13.10
2015,08,24,04,38,13.10
2015,08,24,04,39,13.10
2015,08,24,04,40,13.00
2015,08,24,04,41,13.00
2015,08,24,04,42,13.00
2015,08,24,04,43,12.90
2015,08,24,04,44,12.90
2015,08,24,04,45,12.90
2015,08,24,04,46,12.90
2015,08,24,04,47,12.90
2015,08,24,04,48,12.80
2015,08,24,04,49,12.80
2015,08,24,04,50,12.80
2015,08,24,04,51,12.80
2015,08,24,04,52,12.80
2015,08,24,04,53,12.70
2015,08,24,04,54,12.70
2015,08,24,04,55,12.70
2015,08,24,04,56,12.70
2015,08,24,04,57,12.70
2015,08,24,04,58,12.70
2015,08,24,04,59,12.60
2015,08,24,05,00,12.60
2015,08,24,05,01,12.60
2015,08,24,05,02,12.60
2015,08,24,05,03,12.60
2015,08,24,05,04,12.60
2015,08,24,05,05,12.60
2015,08,24,05,06,12.60
2015,08,24,05,07,12.60
2015,08,24,05,08,12.60
2015,08,24,05,09,12.60
2015,08,24,05,10,12.60
2015,08,24,05,11,12.60
2015,08,24,05,12,12.60
2015,08,24,05,13,12.60
2015,08,24,05,14,12.60
2015,08,24,05,15,12.70
2015,08,24,05,16,12.70
2015,08,24,05,17,12.70
2015,08,24,05,18,12.70
2015,08,24,05,19,12.70
2015,08,24,05,20,12.70
2015,08,24,05,21,12.70
2015,08,24,05,22,12.70
2015,08,24,05,23,12.70
2015,08,24,05,24,12.70
2015,08,24,05,25,12.70
2015,08,24,05,26,12.70
2015,08,24,05,27,12.60
2015,08,24,05,28,12.60
2015,08,24,05,29,12.60
2015,08,24,05,30,12.60
2015,08,24,05,31,12.60
2015,08,24,05,32,12.60
2015,08,24,05,33,12.50
2015,08,24,05,34,12.50
2015,08,24,05,35,12.50
2015,08,24,05,36,12.40
2015,08,24,05,37,12.40
2015,08,24,05,38,12.40
2015,08,24,05,39,12.30
2015,08,24,05,40,12.30
2015,08,24,05,41,12.30
2015,08,24,05,42,12.30
2015,08,24,05,43,12.30
2015,08,24,05,44,12.30
2015,08,24,05,45,12.30
2015,08,24,05,46,12.30
2015,08,24,05,47,12.30
2015,08,24,05,48,12.30
2015,08,24,05,49,12.20
2015,08,24,05,50,12.20
2015,08,24,05,51,12.20
2015,08,24,05,52,12.20
2015,08,24,05,53,12.20
2015,08,24,05,54,12.20
2015,08,24,05,55,12.20
2015,08,24,05,56,12.20
2015,08,24,05,57,12.20
2015,08,24,05,58,12.20
2015,08,24,05,59,12.20
2015,08,24,06,00,12.20
2015,08,24,06,01,12.20
2015,08,24,06,02,12.10
2015,08,24,06,03,12.10
2015,08,24,06,04,12.10
2015,08,24,06,05,12.10
2015,08,24,06,06,12.00
2015,08,24,06,07,12.00
2015,08,24,06,08,12.00
2015,08,24,06,09,12.00
2015,08,24,06,10,11.90
2015,08,24,06,11,11.90
2015,08,24,06,12,11.90
2015,08,24,06,13,11.90
2015,08,24,06,14,11.90
2015,08,24,06,15,11.80
2015,08,24,06,16,11.80
2015,08,24,06,17,11.80
2015,08,24,06,18,11.80
2015,08,24,06,19,11.80
2015,08,24,06,20,11.80
2015,08,24,06,21,11.80
2015,08,24,06,22,11.80
2015,08,24,06,23,11.80
2015,08,24,06,24,11.80
2015,08,24,06,25,11.80
2015,08,24,06,26,11.80
2015,08,24,06,27,11.80
2015,08,24,06,28,11.80
2015,08,24,06,29,11.70
2015,08,24,06,30,11.70
2015,08,24,06,31,11.70
2015,08,24,06,32,11.70
2015,08,24,06,33,11.70
2015,08,24,06,34,11.70
2015,08,24,06,35,11.70
2015,08,24,06,36,11.70
2015,08,24,06,37,11.70
2015,08,24,06,38,11.70
2015,08,24,06,39,11.70
2015,08,24,06,40,11.70
2015,08,24,06,41,11.70
2015,08,24,06,42,11.70
2015,08,24,06,43,11.70
2015,08,24,06,44,11.70
2015,08,24,06,45,11.70
2015,08,24,06,46,11.60
2015,08,24,06,47,11.70
2015,08,24,06,48,11.60
2015,08,24,06,49,11.60
2015,08,24,06,50,11.60
2015,08,24,06,51,11.60
2015,08,24,06,52,11.60
2015,08,24,06,53,11.60
2015,08,24,06,54,11.60
2015,08,24,06,55,11.60
2015,08,24,06,56,11.60
2015,08,24,06,57,11.70
2015,08,24,06,58,11.70
2015,08,24,06,59,11.70
2015,08,24,07,00,11.70
2015,08,24,07,01,11.70
2015,08,24,07,02,11.70
2015,08,24,07,03,11.80
2015,08,24,07,04,11.80
2015,08,24,07,05,11.80
2015,08,24,07,06,11.90
2015,08,24,07,07,11.90
2015,08,24,07,08,11.90
2015,08,24,07,09,11.90
2015,08,24,07,10,12.00
2015,08,24,07,11,12.00
2015,08,24,07,12,12.00
2015,08,24,07,13,12.10
2015,08,24,07,14,12.10
2015,08,24,07,15,12.10
2015,08,24,07,16,12.20
2015,08,24,07,17,12.20
2015,08,24,07,18,12.20
2015,08,24,07,19,12.30
2015,08,24,07,20,12.30
2015,08,24,07,21,12.40
2015,08,24,07,22,12.40
2015,08,24,07,23,12.50
2015,08,24,07,24,12.60
2015,08,24,07,25,12.70
2015,08,24,07,26,12.70
2015,08,24,07,27,12.80
2015,08,24,07,28,12.90
2015,08,24,07,29,12.90
2015,08,24,07,30,13.00
2015,08,24,07,31,13.10
2015,08,24,07,32,13.10
2015,08,24,07,33,13.20
2015,08,24,07,34,13.30
2015,08,24,07,35,13.30
2015,08,24,07,36,13.40
2015,08,24,07,37,13.40
2015,08,24,07,38,13.50
2015,08,24,07,39,13.60
2015,08,24,07,40,13.60
2015,08,24,07,41,13.70
2015,08,24,07,42,13.70
2015,08,24,07,43,13.80
2015,08,24,07,44,13.80
2015,08,24,07,45,13.90
2015,08,24,07,46,13.90
2015,08,24,07,47,14.00
2015,08,24,07,48,14.00
2015,08,24,07,49,14.10
2015,08,24,07,50,14.10
2015,08,24,07,51,14.20
2015,08,24,07,52,14.20
2015,08,24,07,53,14.30
2015,08,24,07,54,14.30
2015,08,24,07,55,14.30
2015,08,24,07,56,14.30
2015,08,24,07,57,14.40
2015,08,24,07,58,14.50
2015,08,24,07,59,14.50
2015,08,24,08,00,14.60
2015,08,24,08,01,14.60
2015,08,24,08,02,14.70
2015,08,24,08,03,14.80
2015,08,24,08,04,14.80
2015,08,24,08,05,14.90
2015,08,24,08,06,14.90
2015,08,24,08,07,15.00
2015,08,24,08,08,15.10
2015,08,24,08,09,15.10
2015,08,24,08,10,15.10
2015,08,24,08,11,15.10
2015,08,24,08,12,15.10
2015,08,24,08,13,15.10
2015,08,24,08,14,15.10
2015,08,24,08,15,15.20
2015,08,24,08,16,15.20
2015,08,24,08,17,15.20
2015,08,24,08,18,15.30
2015,08,24,08,19,15.30
2015,08,24,08,20,15.30
2015,08,24,08,21,15.30
2015,08,24,08,22,15.30
2015,08,24,08,23,15.30
2015,08,24,08,24,15.30
2015,08,24,08,25,15.30
2015,08,24,08,26,15.30
2015,08,24,08,27,15.30
2015,08,24,08,28,15.30
2015,08,24,08,29,15.30
2015,08,24,08,30,15.30
2015,08,24,08,31,15.30
2015,08,24,08,32,15.30
2015,08,24,08,33,15.30
2015,08,24,08,34,15.30
2015,08,24,08,35,15.30
2015,08,24,08,36,15.40
2015,08,24,08,37,15.40
2015,08,24,08,38,15.50
2015,08,24,08,39,15.50
2015,08,24,08,40,15.60
2015,08,24,08,41,15.60
2015,08,24,08,42,15.70
2015,08,24,08,43,15.70
2015,08,24,08,44,15.80
2015,08,24,08,45,15.80
2015,08,24,08,46,15.90
2015,08,24,08,47,16.00
2015,08,24,08,48,16.10
2015,08,24,08,49,16.20
2015,08,24,08,50,16.30
2015,08,24,08,51,16.40
2015,08,24,08,52,16.40
2015,08,24,08,53,16.40
2015,08,24,08,54,16.40
2015,08,24,08,55,16.50
2015,08,24,08,56,16.60
2015,08,24,08,57,16.70
2015,08,24,08,58,16.80
2015,08,24,08,59,16.80
2015,08,24,09,00,16.80
2015,08,24,09,01,16.90
2015,08,24,09,02,16.90
2015,08,24,09,03,16.90
2015,08,24,09,04,16.90
2015,08,24,09,05,17.00
2015,08,24,09,06,17.10
2015,08,24,09,07,17.10
2015,08,24,09,08,17.10
2015,08,24,09,09,17.10
2015,08,24,09,10,17.20
2015,08,24,09,11,17.20
2015,08,24,09,12,17.30
2015,08,24,09,13,17.30
2015,08,24,09,14,17.20
2015,08,24,09,15,17.20
2015,08,24,09,16,17.20
2015,08,24,09,17,17.20
2015,08,24,09,18,17.20
2015,08,24,09,19,17.20
2015,08,24,09,20,17.20
2015,08,24,09,21,17.20
2015,08,24,09,22,17.20
2015,08,24,09,23,17.30
2015,08,24,09,24,17.30
2015,08,24,09,25,17.40
2015,08,24,09,26,17.50
2015,08,24,09,27,17.50
2015,08,24,09,28,17.60
2015,08,24,09,29,17.70
2015,08,24,09,30,17.70
2015,08,24,09,31,17.70
2015,08,24,09,32,17.60
2015,08,24,09,33,17.70
2015,08,24,09,34,17.70
2015,08,24,09,35,17.70
2015,08,24,09,36,17.70
2015,08,24,09,37,17.80
2015,08,24,09,38,17.80
2015,08,24,09,39,17.90
2015,08,24,09,40,18.00
2015,08,24,09,41,18.10
2015,08,24,09,42,18.10
2015,08,24,09,43,18.10
2015,08,24,09,44,18.10
2015,08,24,09,45,18.20
2015,08,24,09,46,18.20
2015,08,24,09,47,18.20
2015,08,24,09,48,18.10
2015,08,24,09,49,17.90
2015,08,24,09,50,17.90
2015,08,24,09,51,17.80
2015,08,24,09,52,17.70
2015,08,24,09,53,17.60
2015,08,24,09,54,17.60
2015,08,24,09,55,17.60
2015,08,24,09,56,17.60
2015,08,24,09,57,17.70
2015,08,24,09,58,17.80
2015,08,24,09,59,17.80
2015,08,24,10,00,17.90
2015,08,24,10,01,17.90
2015,08,24,10,02,18.00
2015,08,24,10,03,18.00
2015,08,24,10,04,18.10
2015,08,24,10,05,18.10
2015,08,24,10,06,18.10
2015,08,24,10,07,18.10
2015,08,24,10,08,18.10
2015,08,24,10,09,18.10
2015,08,24,10,10,18.10
2015,08,24,10,11,18.20
2015,08,24,10,12,18.30
2015,08,24,10,13,18.50
2015,08,24,10,14,18.60
2015,08,24,10,15,18.60
2015,08,24,10,16,18.60
2015,08,24,10,17,18.40
2015,08,24,10,18,18.30
2015,08,24,10,19,18.10
2015,08,24,10,20,18.00
2015,08,24,10,21,17.90
2015,08,24,10,22,17.80
2015,08,24,10,23,17.70
2015,08,24,10,24,17.70
2015,08,24,10,25,17.60
2015,08,24,10,26,17.70
2015,08,24,10,27,17.70
2015,08,24,10,28,17.70
2015,08,24,10,29,17.70
2015,08,24,10,30,17.70
2015,08,24,10,31,17.70
2015,08,24,10,32,17.70
2015,08,24,10,33,17.80
2015,08,24,10,34,17.90
2015,08,24,10,35,18.00
2015,08,24,10,36,18.10
2015,08,24,10,37,18.20
2015,08,24,10,38,18.30
2015,08,24,10,39,18.30
2015,08,24,10,40,18.40
2015,08,24,10,41,18.40
2015,08,24,10,42,18.50
2015,08,24,10,43,18.60
2015,08,24,10,44,18.70
2015,08,24,10,45,18.60
2015,08,24,10,46,18.60
2015,08,24,10,47,18.50
2015,08,24,10,48,18.50
2015,08,24,10,49,18.50
2015,08,24,10,50,18.40
2015,08,24,10,51,18.40
2015,08,24,10,52,18.40
2015,08,24,10,53,18.40
2015,08,24,10,54,18.40
2015,08,24,10,55,18.40
2015,08,24,10,56,18.50
2015,08,24,10,57,18.50
2015,08,24,10,58,18.60
2015,08,24,10,59,18.60
2015,08,24,11,00,18.50
2015,08,24,11,01,18.50
2015,08,24,11,02,18.40
2015,08,24,11,03,18.40
2015,08,24,11,04,18.30
2015,08,24,11,05,18.30
2015,08,24,11,06,18.30
2015,08,24,11,07,18.30
2015,08,24,11,08,18.20
2015,08,24,11,09,18.20
2015,08,24,11,10,18.20
2015,08,24,11,11,18.20
2015,08,24,11,12,18.20
2015,08,24,11,13,18.20
2015,08,24,11,14,18.30
2015,08,24,11,15,18.40
2015,08,24,11,16,18.60
2015,08,24,11,17,18.80
2015,08,24,11,18,18.90
2015,08,24,11,19,18.90
2015,08,24,11,20,18.90
2015,08,24,11,21,18.90
2015,08,24,11,22,18.80
2015,08,24,11,23,18.80
2015,08,24,11,24,18.80
2015,08,24,11,25,18.80
2015,08,24,11,26,18.80
2015,08,24,11,27,18.90
2015,08,24,11,28,19.00
2015,08,24,11,29,19.10
2015,08,24,11,30,19.20
2015,08,24,11,31,19.30
2015,08,24,11,32,19.20
2015,08,24,11,33,19.10
2015,08,24,11,34,19.10
2015,08,24,11,35,19.00
2015,08,24,11,36,18.90
2015,08,24,11,37,18.90
2015,08,24,11,38,18.80
2015,08,24,11,39,18.80
2015,08,24,11,40,18.70
2015,08,24,11,41,18.70
2015,08,24,11,42,18.80
2015,08,24,11,43,18.80
2015,08,24,11,44,18.80
2015,08,24,11,45,18.80
2015,08,24,11,46,18.90
2015,08,24,11,47,18.90
2015,08,24,11,48,18.90
2015,08,24,11,49,19.00
2015,08,24,11,50,19.10
2015,08,24,11,51,19.10
2015,08,24,11,52,19.10
2015,08,24,11,53,19.10
2015,08,24,11,54,19.20
2015,08,24,11,55,19.20
2015,08,24,11,56,19.30
2015,08,24,11,57,19.30
2015,08,24,11,58,19.40
2015,08,24,11,59,19.40
2015,08,24,12,00,19.40
2015,08,24,12,01,19.30
2015,08,24,12,02,19.20
2015,08,24,12,03,19.20
2015,08,24,12,04,19.20
2015,08,24,12,05,19.20
2015,08,24,12,06,19.10
2015,08,24,12,07,19.10
2015,08,24,12,08,19.10
2015,08,24,12,09,19.10
2015,08,24,12,10,19.10
2015,08,24,12,11,19.10
2015,08,24,12,12,19.10
2015,08,24,12,13,19.10
2015,08,24,12,14,19.20
2015,08,24,12,15,19.20
2015,08,24,12,16,19.20
2015,08,24,12,17,19.30
2015,08,24,12,18,19.30
2015,08,24,12,19,19.30
2015,08,24,12,20,19.30
2015,08,24,12,21,19.30
2015,08,24,12,22,19.30
2015,08,24,12,23,19.20
2015,08,24,12,24,19.20
2015,08,24,12,25,19.20
2015,08,24,12,26,19.30
2015,08,24,12,27,19.30
2015,08,24,12,28,19.30
2015,08,24,12,29,19.30
2015,08,24,12,30,19.30
2015,08,24,12,31,19.30
2015,08,24,12,32,19.30
2015,08,24,12,33,19.30
2015,08,24,12,34,19.30
2015,08,24,12,35,19.40
2015,08,24,12,36,19.40
2015,08,24,12,37,19.40
2015,08,24,12,38,19.40
2015,08,24,12,39,19.30
2015,08,24,12,40,19.40
2015,08,24,12,41,19.40
2015,08,24,12,42,19.40
2015,08,24,12,43,19.40
2015,08,24,12,44,19.40
2015,08,24,12,45,19.40
2015,08,24,12,46,19.50
2015,08,24,12,47,19.60
2015,08,24,12,48,19.60
2015,08,24,12,49,19.60
2015,08,24,12,50,19.70
2015,08,24,12,51,19.70
2015,08,24,12,52,19.70
2015,08,24,12,53,19.70
2015,08,24,12,54,19.70
2015,08,24,12,55,19.70
2015,08,24,12,56,19.60
2015,08,24,12,57,19.60
2015,08,24,12,58,19.60
2015,08,24,12,59,19.60
2015,08,24,13,00,19.70
2015,08,24,13,01,19.70
2015,08,24,13,02,19.70
2015,08,24,13,03,19.70
2015,08,24,13,04,19.70
2015,08,24,13,05,19.80
2015,08,24,13,06,19.80
2015,08,24,13,07,19.90
2015,08,24,13,08,19.90
2015,08,24,13,09,20.00
2015,08,24,13,10,20.10
2015,08,24,13,11,20.10
2015,08,24,13,12,20.10
2015,08,24,13,13,20.10
2015,08,24,13,14,20.10
2015,08,24,13,15,20.10
2015,08,24,13,16,20.10
2015,08,24,13,17,20.10
2015,08,24,13,18,20.10
2015,08,24,13,19,20.10
2015,08,24,13,20,20.00
2015,08,24,13,21,20.00
2015,08,24,13,22,20.00
2015,08,24,13,23,19.90
2015,08,24,13,24,19.90
2015,08,24,13,25,19.90
2015,08,24,13,26,19.90
2015,08,24,13,27,19.80
2015,08,24,13,28,19.90
2015,08,24,13,29,19.90
2015,08,24,13,30,19.90
2015,08,24,13,31,19.90
2015,08,24,13,32,20.00
2015,08,24,13,33,20.00
2015,08,24,13,34,20.10
2015,08,24,13,35,20.10
2015,08,24,13,36,20.10
2015,08,24,13,37,20.10
2015,08,24,13,38,20.20
2015,08,24,13,39,20.20
2015,08,24,13,40,20.30
2015,08,24,13,41,20.40
2015,08,24,13,42,20.40
2015,08,24,13,43,20.40
2015,08,24,13,44,20.30
2015,08,24,13,45,20.30
2015,08,24,13,46,20.30
2015,08,24,13,47,20.30
2015,08,24,13,48,20.40
2015,08,24,13,49,20.50
2015,08,24,13,50,20.50
2015,08,24,13,51,20.40
2015,08,24,13,52,20.40
2015,08,24,13,53,20.30
2015,08,24,13,54,20.30
2015,08,24,13,55,20.30
2015,08,24,13,56,20.30
2015,08,24,13,57,20.30
2015,08,24,13,58,20.30
2015,08,24,13,59,20.20
2015,08,24,14,00,20.20
2015,08,24,14,01,20.20
2015,08,24,14,02,20.10
2015,08,24,14,03,20.10
2015,08,24,14,04,20.10
2015,08,24,14,05,20.10
2015,08,24,14,06,20.10
2015,08,24,14,07,20.10
2015,08,24,14,08,20.10
2015,08,24,14,09,20.20
2015,08,24,14,10,20.20
2015,08,24,14,11,20.20
2015,08,24,14,12,20.20
2015,08,24,14,13,20.10
2015,08,24,14,14,20.10
2015,08,24,14,15,20.10
2015,08,24,14,16,20.10
2015,08,24,14,17,20.10
2015,08,24,14,18,20.10
2015,08,24,14,19,20.10
2015,08,24,14,20,20.10
2015,08,24,14,21,20.10
2015,08,24,14,22,20.20
2015,08,24,14,23,20.20
2015,08,24,14,24,20.20
2015,08,24,14,25,20.20
2015,08,24,14,26,20.20
2015,08,24,14,27,20.20
2015,08,24,14,28,20.20
2015,08,24,14,29,20.20
2015,08,24,14,30,20.20
2015,08,24,14,31,20.20
2015,08,24,14,32,20.20
2015,08,24,14,33,20.20
2015,08,24,14,34,20.30
2015,08,24,14,35,20.40
2015,08,24,14,36,20.40
2015,08,24,14,37,20.40
2015,08,24,14,38,20.50
2015,08,24,14,39,20.60
2015,08,24,14,40,20.60
2015,08,24,14,41,20.70
2015,08,24,14,42,20.70
2015,08,24,14,43,20.70
2015,08,24,14,44,20.70
2015,08,24,14,45,20.70
2015,08,24,14,46,20.60
2015,08,24,14,47,20.60
2015,08,24,14,48,20.70
2015,08,24,14,49,20.90
2015,08,24,14,50,21.10
2015,08,24,14,51,21.10
2015,08,24,14,52,21.10
2015,08,24,14,53,21.10
2015,08,24,14,54,21.20
2015,08,24,14,55,21.10
2015,08,24,14,56,21.00
2015,08,24,14,57,21.00
2015,08,24,14,58,20.90
2015,08,24,14,59,20.80
2015,08,24,15,00,20.80
2015,08,24,15,01,20.80
2015,08,24,15,02,20.80
2015,08,24,15,03,20.80
2015,08,24,15,04,20.70
2015,08,24,15,05,20.70
2015,08,24,15,06,20.70
2015,08,24,15,07,20.60
2015,08,24,15,08,20.70
2015,08,24,15,09,20.70
2015,08,24,15,10,20.70
2015,08,24,15,11,20.70
2015,08,24,15,12,20.70
2015,08,24,15,13,20.70
2015,08,24,15,14,20.70
2015,08,24,15,15,20.70
2015,08,24,15,16,20.70
2015,08,24,15,17,20.70
2015,08,24,15,18,20.80
2015,08,24,15,19,20.90
2015,08,24,15,20,20.90
2015,08,24,15,21,20.90
2015,08,24,15,22,20.80
2015,08,24,15,23,20.80
2015,08,24,15,24,20.70
2015,08,24,15,25,20.70
2015,08,24,15,26,20.70
2015,08,24,15,27,20.70
2015,08,24,15,28,20.70
2015,08,24,15,29,20.70
2015,08,24,15,30,20.70
2015,08,24,15,31,20.70
2015,08,24,15,32,20.70
2015,08,24,15,33,20.80
2015,08,24,15,34,20.90
2015,08,24,15,35,21.00
2015,08,24,15,36,21.00
2015,08,24,15,37,20.90
2015,08,24,15,38,20.90
2015,08,24,15,39,20.80
2015,08,24,15,40,20.80
2015,08,24,15,41,20.80
2015,08,24,15,42,20.70
2015,08,24,15,43,20.70
2015,08,24,15,44,20.70
2015,08,24,15,45,20.70
2015,08,24,15,46,20.80
2015,08,24,15,47,20.80
2015,08,24,15,48,20.80
2015,08,24,15,49,20.80
2015,08,24,15,50,20.80
2015,08,24,15,51,20.80
2015,08,24,15,52,20.80
2015,08,24,15,53,20.80
2015,08,24,15,54,20.80
2015,08,24,15,55,20.70
2015,08,24,15,56,20.70
2015,08,24,15,57,20.80
2015,08,24,15,58,20.80
2015,08,24,15,59,20.80
2015,08,24,16,00,20.80
2015,08,24,16,01,20.70
2015,08,24,16,02,20.70
2015,08,24,16,03,20.70
2015,08,24,16,04,20.70
2015,08,24,16,05,20.70
2015,08,24,16,06,20.70
2015,08,24,16,07,20.70
2015,08,24,16,08,20.70
2015,08,24,16,09,20.70
2015,08,24,16,10,20.80
2015,08,24,16,11,20.80
2015,08,24,16,12,20.90
2015,08,24,16,13,20.90
2015,08,24,16,14,20.90
2015,08,24,16,15,20.90
2015,08,24,16,16,20.90
2015,08,24,16,17,20.90
2015,08,24,16,18,20.90
2015,08,24,16,19,20.90
2015,08,24,16,20,20.80
2015,08,24,16,21,20.90
2015,08,24,16,22,20.90
2015,08,24,16,23,20.90
2015,08,24,16,24,20.90
2015,08,24,16,25,21.00
2015,08,24,16,26,21.00
2015,08,24,16,27,21.00
2015,08,24,16,28,20.90
2015,08,24,16,29,20.90
2015,08,24,16,30,20.90
2015,08,24,16,31,21.00
2015,08,24,16,32,21.00
2015,08,24,16,33,21.00
2015,08,24,16,34,20.90
2015,08,24,16,35,20.90
2015,08,24,16,36,21.00
2015,08,24,16,37,21.00
2015,08,24,16,38,20.90
2015,08,24,16,39,20.90
2015,08,24,16,40,20.80
2015,08,24,16,41,20.80
2015,08,24,16,42,20.80
2015,08,24,16,43,20.80
2015,08,24,16,44,20.80
2015,08,24,16,45,20.80
2015,08,24,16,46,20.70
2015,08,24,16,47,20.70
2015,08,24,16,48,20.70
2015,08,24,16,49,20.70
2015,08,24,16,50,20.80
2015,08,24,16,51,20.80
2015,08,24,16,52,20.80
2015,08,24,16,53,20.80
2015,08,24,16,54,20.80
2015,08,24,16,55,20.70
2015,08,24,16,56,20.70
2015,08,24,16,57,20.70
2015,08,24,16,58,20.70
2015,08,24,16,59,20.70
2015,08,24,17,00,20.70
2015,08,24,17,01,20.70
2015,08,24,17,02,20.70
2015,08,24,17,03,20.70
2015,08,24,17,04,20.70
2015,08,24,17,05,20.70
2015,08,24,17,06,20.70
2015,08,24,17,07,20.60
2015,08,24,17,08,20.60
2015,08,24,17,09,20.60
2015,08,24,17,10,20.60
2015,08,24,17,11,20.60
2015,08,24,17,12,20.60
2015,08,24,17,13,20.60
2015,08,24,17,14,20.60
2015,08,24,17,15,20.70
2015,08,24,17,16,20.70
2015,08,24,17,17,20.60
2015,08,24,17,18,20.60
2015,08,24,17,19,20.50